Bartow, FL

11:07 AM EDT on July 25, 2017 (GMT -0400)
Bartow Municipal

Weather History for KBOW - November, 2011

Change the Weather History Date:

Tuesday, November 1, 2011

  Actual Average Record
Temperature  
Mean Temperature 68 °F -  
Max Temperature 77 °F 81 °F 90 °F (1941)
Min Temperature 60 °F 61 °F 37 °F (1993)
Cooling Degree Days 4    
Growing Degree Days 18 (Base 50)    
Moisture  
Dew Point 59 °F    
Average Humidity 74    
Maximum Humidity 100    
Minimum Humidity 50    
Precipitation  
Precipitation 0.00 in - - ()
Sea Level Pressure  
Sea Level Pressure 30.12 in    
Wind  
Wind Speed 10 mph (NNE)    
Max Wind Speed 17 mph    
Max Gust Speed 24 mph    
Visibility 6 miles    
Events      
Averages and records for this station are not official NWS values.
T = Trace of Precipitation, MM = Missing Value Source: NWS Daily Summary

Daily Weather History Graph

Daily Weather History Graph

Search for Another Location

Airport or City:

Trip Planner

Search our weather history database for the weather conditions in past years. The results will help you decide how hot, cold, wet, or windy it might be!

Date:

Astronomy

Nov. 01, 2011 Rise Set
Actual Time 7:38 AM EDT 6:42 PM EDT
Civil Twilight 7:13 AM EDT 7:07 PM EDT
Nautical Twilight 6:46 AM EDT 7:34 PM EDT
Astronomical Twilight 6:18 AM EDT 8:02 PM EDT
Moon 1:18 PM EDT (11/1) No Moon Set
Length of Visible Light 11h 53m
Length of Day
11h 04m
Waxing Crescent, 39% of the Moon is Illuminated
Nov 1
Waxing Crescent
Nov 2
First Quarter
Nov 10
Full
Nov 18
Last Quarter
Nov 25
New

Hourly Weather History & Observations

Time (EDT) Temp. Dew Point Humidity Pressure Visibility Wind Dir Wind Speed Gust Speed Precip Events Conditions
12:15 AM - - N/A% 30.08 in 10.0 mi North 6.9 mph - N/A   Scattered Clouds
12:35 AM - - N/A% 30.08 in 10.0 mi North 4.6 mph - N/A   Mostly Cloudy
12:55 AM - - N/A% 30.07 in 10.0 mi North - - N/A   Mostly Cloudy
1:15 AM - - N/A% 30.07 in 10.0 mi North 8.1 mph - N/A   Mostly Cloudy
1:35 AM - - N/A% 30.07 in 10.0 mi North 8.1 mph - N/A   Mostly Cloudy
1:55 AM 66.2 °F 62.6 °F 88% 30.08 in 10.0 mi North 11.5 mph - N/A   Overcast
2:15 AM 66.2 °F 60.8 °F 83% 30.08 in 10.0 mi North 10.4 mph - N/A   Overcast
2:35 AM - - N/A% 30.08 in 10.0 mi North 10.4 mph - N/A   Overcast
2:55 AM 64.4 °F 60.8 °F 88% 30.09 in 10.0 mi North 10.4 mph - N/A   Mostly Cloudy
3:15 AM 64.4 °F 60.8 °F 88% 30.09 in 10.0 mi North 10.4 mph - N/A   Mostly Cloudy
3:35 AM 64.4 °F 62.6 °F 94% 30.09 in 10.0 mi North 9.2 mph - N/A   Overcast
3:55 AM 64.4 °F 62.6 °F 94% 30.09 in 10.0 mi North 9.2 mph - N/A   Overcast
4:15 AM 64.4 °F 62.6 °F 94% 30.08 in 9.0 mi North 11.5 mph 17.3 mph N/A   Mostly Cloudy
4:35 AM 62.6 °F 62.6 °F 100% 30.09 in 10.0 mi North 13.8 mph - N/A   Scattered Clouds
4:55 AM 62.6 °F 62.6 °F 100% 30.09 in 9.0 mi North 11.5 mph - N/A   Mostly Cloudy
5:15 AM 62.6 °F 62.6 °F 100% 30.09 in 9.0 mi North 11.5 mph - N/A   Partly Cloudy
5:35 AM 62.6 °F 62.6 °F 100% 30.09 in 9.0 mi North 10.4 mph 17.3 mph N/A   Clear
5:55 AM 62.6 °F 62.6 °F 100% 30.10 in 10.0 mi North 11.5 mph 17.3 mph N/A   Mostly Cloudy
6:15 AM 62.6 °F 62.6 °F 100% 30.10 in 9.0 mi North 9.2 mph - N/A   Scattered Clouds
6:35 AM 60.8 °F 60.8 °F 100% 30.10 in 9.0 mi North 10.4 mph - N/A   Clear
7:15 AM 60.8 °F 60.8 °F 100% 30.11 in 10.0 mi North 9.2 mph - N/A   Partly Cloudy
7:35 AM 60.8 °F 60.8 °F 100% 30.12 in 5.0 mi North 8.1 mph - N/A   Partly Cloudy
7:55 AM 60.8 °F 60.8 °F 100% 30.13 in 7.0 mi North 8.1 mph - N/A   Mostly Cloudy
8:15 AM 62.6 °F 62.6 °F 100% 30.13 in 7.0 mi North 10.4 mph - N/A   Mostly Cloudy
8:35 AM 62.6 °F 60.8 °F 94% 30.13 in 1.0 mi North 11.5 mph - N/A   Mostly Cloudy
8:55 AM 62.6 °F 60.8 °F 94% 30.14 in 1.8 mi North 12.7 mph 18.4 mph N/A   Clear
9:15 AM 64.4 °F 59.0 °F 83% 30.14 in 7.0 mi North 12.7 mph - N/A   Clear
9:35 AM 64.4 °F 57.2 °F 77% 30.14 in 8.0 mi North 10.4 mph 17.3 mph N/A   Clear
9:55 AM 66.2 °F 57.2 °F 73% 30.15 in 2.0 mi North - - N/A   Haze
10:15 AM 66.2 °F 57.2 °F 73% 30.16 in 1.2 mi NNE 15.0 mph 18.4 mph N/A   Haze
10:35 AM 69.8 °F 57.2 °F 64% 30.16 in 5.0 mi NNE 15.0 mph 18.4 mph N/A   Haze
10:55 AM 69.8 °F 57.2 °F 64% 30.16 in 6.0 mi NNE 13.8 mph 20.7 mph N/A   Haze
11:15 AM 71.6 °F 57.2 °F 60% 30.16 in 3.0 mi NE 17.3 mph 20.7 mph N/A   Haze
11:35 AM 71.6 °F 57.2 °F 60% 30.16 in 8.0 mi NE 11.5 mph - N/A   Clear
11:55 AM 73.4 °F 57.2 °F 57% 30.16 in 2.5 mi ENE 13.8 mph - N/A   Haze
12:15 PM 73.4 °F 59.0 °F 61% 30.15 in 0.8 mi NE 13.8 mph 18.4 mph N/A   Haze
12:35 PM 73.4 °F 57.2 °F 57% 30.15 in 1.2 mi NNE 15.0 mph - N/A   Haze
12:55 PM 75.2 °F 59.0 °F 57% 30.14 in 4.0 mi NNE 15.0 mph 19.6 mph N/A   Haze
1:15 PM 75.2 °F 59.0 °F 57% 30.14 in 1.2 mi NE 11.5 mph - N/A   Haze
1:35 PM 75.2 °F 59.0 °F 57% 30.13 in 1.5 mi NE 15.0 mph - N/A   Haze
1:55 PM 75.2 °F 57.2 °F 53% 30.13 in 1.8 mi NNE 13.8 mph 21.9 mph N/A   Haze
2:15 PM 77.0 °F 59.0 °F 54% 30.12 in 1.5 mi NE 17.3 mph 24.2 mph N/A   Haze
2:35 PM 77.0 °F 57.2 °F 50% 30.12 in 1.2 mi NE 11.5 mph 17.3 mph N/A   Haze
2:55 PM 75.2 °F 57.2 °F 53% 30.11 in 1.2 mi NE 13.8 mph 19.6 mph N/A   Haze
3:15 PM 75.2 °F 57.2 °F 53% 30.11 in 1.8 mi NNE 11.5 mph - N/A   Haze
3:35 PM 75.2 °F 57.2 °F 53% 30.11 in 1.8 mi NE 17.3 mph 21.9 mph N/A   Haze
3:55 PM 73.4 °F 57.2 °F 57% 30.11 in 1.2 mi NNE 15.0 mph 19.6 mph N/A   Haze
4:15 PM 75.2 °F 57.2 °F 53% 30.11 in - NE 12.7 mph - N/A   Unknown
4:35 PM 75.2 °F 57.2 °F 53% 30.12 in 1.8 mi NE 13.8 mph - N/A   Haze
4:55 PM 73.4 °F 57.2 °F 57% 30.13 in - NE 13.8 mph 20.7 mph N/A   Scattered Clouds
5:15 PM 71.6 °F 57.2 °F 60% 30.13 in - NNE 12.7 mph - N/A   Mostly Cloudy
5:35 PM 71.6 °F 57.2 °F 60% 30.13 in - NE 10.4 mph - N/A   Mostly Cloudy
5:55 PM 71.6 °F 55.4 °F 57% 30.14 in - NNE 11.5 mph - N/A   Mostly Cloudy
6:15 PM 69.8 °F 55.4 °F 60% 30.14 in - NNE 12.7 mph 18.4 mph N/A   Mostly Cloudy
6:55 PM 68.0 °F 55.4 °F 64% 30.15 in - NNE 9.2 mph - N/A   Partly Cloudy
7:15 PM 66.2 °F 55.4 °F 68% 30.16 in - NNE 6.9 mph - N/A   Mostly Cloudy
7:35 PM 66.2 °F 55.4 °F 68% 30.16 in - NE 6.9 mph - N/A   Mostly Cloudy
7:55 PM 66.2 °F 55.4 °F 68% 30.17 in - NNE 9.2 mph - N/A   Mostly Cloudy
8:15 PM 66.2 °F 55.4 °F 68% 30.18 in - NNE 10.4 mph - N/A   Mostly Cloudy
8:35 PM 66.2 °F 53.6 °F 64% 30.18 in - NNE 10.4 mph - N/A   Partly Cloudy
8:55 PM 64.4 °F 53.6 °F 68% 30.18 in - NNE 9.2 mph - N/A   Clear
9:15 PM 64.4 °F 53.6 °F 68% 30.19 in - NNE 8.1 mph - N/A   Clear
9:35 PM 64.4 °F 53.6 °F 68% 30.19 in - Calm Calm - N/A   Clear
10:15 PM 62.6 °F 55.4 °F 77% 30.19 in - North 9.2 mph - N/A   Clear
10:55 PM 62.6 °F 55.4 °F 77% 30.19 in - NNE 9.2 mph - N/A   Clear
11:15 PM 62.6 °F 55.4 °F 77% 30.20 in - NNE 8.1 mph - N/A   Clear
11:35 PM 62.6 °F 55.4 °F 77% 30.19 in - NNE 9.2 mph - N/A   Clear